Temp
13 12 12 11 12 12 12 12 12 12 12 12 12 11 11 11 11 10 10 10 10 10 10 10 9 9 9 8 8 7 8 9 8 9 10 11 9 9 9 8 9 9 9
12 11 11 11 10 11 11 12 12 12 12 12 11 11 11 10 10 10 10 9 9 9 9 9 9 9 8 8 8 7 7 8 7 6 7 7 9 9 8 8 8 8 8
11 10 10 10 11 11 12 12 12 12 12 12 12 11 11 10 9 9 9 9 9 9 9 9 9 8 8 7 7 7 7 7 7 6 5 6 6 5 8 8 8 8 8
12 11 10 10 11 11 12 12 11 11 11 11 11 11 11 10 9 9 9 8 8 8 8 8 8 8 7 7 7 6 6 6 7 7 6 5 5 5 6 6 7 8 8
12 11 10 10 11 11 11 11 11 11 11 11 11 11 10 10 9 9 8 8 8 7 8 8 7 7 7 7 6 6 6 6 5 5 5 5 5 6 6 6 6 7 7
11 10 10 10 11 11 11 11 11 10 11 10 10 10 10 10 9 9 8 8 8 8 7 7 7 7 7 6 6 6 5 5 5 5 5 4 4 4 4 4 5 4 6
11 10 10 10 10 10 10 10 10 10 10 10 10 10 10 9 9 8 8 8 8 8 7 7 7 7 7 6 6 6 5 5 5 4 4 4 4 4 4 4 4 3 5
10 10 10 10 10 10 10 10 10 10 10 10 10 10 10 9 9 8 8 7 7 7 7 7 7 7 6 6 6 6 5 5 4 4 4 4 4 4 4 3 3 3 3
11 10 9 9 9 9 9 10 9 10 10 10 10 10 9 9 8 8 7 7 7 7 6 6 6 6 6 6 6 6 6 5 5 4 4 4 4 4 3 3 3 2 2
11 10 9 9 9 9 10 10 10 9 9 9 9 9 9 9 8 8 7 7 6 6 6 6 6 6 6 6 6 6 5 5 5 4 4 3 3 3 3 3 3 3 2
11 10 10 9 9 9 9 9 9 9 9 9 9 8 8 8 8 7 6 6 6 6 6 6 6 6 6 6 6 5 5 5 5 5 4 4 3 3 3 3 3 2 2
12 11 10 9 9 8 8 8 9 9 9 8 8 8 7 8 7 7 6 6 6 6 6 5 5 5 5 5 5 6 5 5 5 5 5 4 4 4 3 3 3 2 2
12 12 11 10 9 8 8 7 8 8 8 8 7 7 7 7 7 6 6 6 6 5 5 5 5 5 5 5 5 5 5 4 4 4 4 4 4 4 3 3 3 2 2
10 10 11 11 10 9 8 7 7 7 7 7 7 7 6 6 6 6 6 5 5 5 4 4 4 4 4 4 4 4 4 4 4 4 4 4 4 4 4 3 3 3 2
8 8 9 10 9 9 8 7 6 6 6 6 6 6 6 6 6 5 5 4 4 4 3 3 4 3 3 3 3 3 3 4 4 4 3 3 3 3 3 3 3 3 2
7 7 8 8 9 8 8 7 6 6 6 6 5 5 5 5 5 4 4 3 3 3 3 3 3 3 3 3 2 2 3 3 3 3 3 3 3 3 3 3 3 3 2
6 6 6 7 7 7 7 6 6 5 5 5 5 4 4 4 4 3 3 2 2 2 2 2 2 2 2 2 2 2 2 2 2 2 3 3 3 2 2 2 2 2 2
5 5 5 6 6 6 6 6 5 4 4 4 4 3 3 2 2 2 2 1 1 1 1 1 1 1 2 2 2 2 1 2 2 2 2 2 2 2 2 2 2 2 2
4 4 4 5 5 5 5 4 3 3 3 3 2 2 2 1 1 1 1 1 1 1 1 1 1 1 1 2 1 1 1 1 1 1 1 1 1 2 1 1 1 1 2
2 2 2 2 3 2 2 2 2 2 2 2 1 1 1 1 0 0 1 1 1 1 1 1 1 1 1 1 1 1 0 0 1 1 1 1 1 1 0 -0 -0 -0 1
2 1 1 1 1 2 2 2 2 1 1 0 0 0 0 0 0 0 0 0 0 0 0 0 1 1 1 1 0 0 -1 -1 -1 -1 -0 0 0 -0 -1 -1 -1 -1 -1
1 1 1 0 0 0 0 -0 -0 0 -0 -0 -1 -1 -0 -0 -0 -0 -0 -0 -0 -0 -0 -0 -0 -0 -0 -1 -1 -1 -1 -1 -2 -2 -1 -1 -1 -1 -2 -2 -2 -2 -2
1 0 0 -0 -0 -0 -0 -0 -0 -1 -1 -1 -1 -1 -1 -1 -1 -1 -1 -1 -1 -2 -2 -2 -2 -2 -2 -2 -2 -2 -2 -2 -3 -3 -3 -3 -3 -3 -3 -2 -3 -3 -3
0 -0 -1 -1 -1 -1 -1 -1 -1 -1 -1 -1 -1 -2 -2 -2 -2 -2 -2 -2 -2 -2 -2 -2 -2 -3 -3 -3 -3 -3 -3 -3 -4 -4 -4 -4 -5 -5 -4 -4 -3 -4 -4
-0 -1 -1 -1 -1 -2 -2 -2 -2 -2 -2 -2 -2 -2 -2 -2 -3 -3 -3 -3 -3 -3 -3 -3 -4 -4 -4 -3 -3 -4 -5 -5 -5 -6 -6 -6 -6 -6 -6 -5 -5 -4 -4
-1 -1 -1 -2 -2 -2 -2 -2 -2 -3 -3 -3 -3 -3 -3 -3 -3 -3 -4 -4 -4 -4 -4 -4 -4 -4 -4 -4 -4 -4 -4 -5 -6 -6 -6 -6 -6 -6 -5 -6 -5 -4 -4
Height
1519 1522 1523 1525 1526 1527 1528 1529 1529 1529 1529 1528 1527 1526 1526 1525 1523 1522 1521 1518 1517 1515 1512 1510 1508 1506 1504 1502 1500 1498 1496 1494 1491 1488 1485 1484 1483 1484 1484 1483 1481 1480 1478
1518 1520 1522 1523 1525 1526 1527 1527 1528 1529 1529 1528 1527 1525 1525 1524 1523 1521 1519 1518 1515 1513 1511 1508 1506 1504 1502 1501 1499 1497 1495 1493 1492 1489 1485 1483 1483 1482 1481 1481 1480 1479 1477
1517 1519 1521 1522 1524 1525 1526 1527 1528 1528 1528 1528 1526 1525 1523 1522 1521 1520 1519 1516 1514 1511 1509 1506 1504 1502 1500 1498 1497 1496 1494 1492 1492 1491 1491 1488 1486 1483 1479 1478 1478 1477 1476
1517 1519 1521 1522 1523 1524 1525 1527 1527 1527 1528 1527 1526 1524 1522 1520 1519 1518 1516 1515 1513 1510 1507 1504 1502 1500 1498 1497 1495 1494 1493 1491 1490 1490 1490 1489 1488 1485 1478 1476 1476 1476 1474
1517 1519 1521 1521 1523 1524 1525 1526 1527 1527 1527 1527 1525 1523 1521 1519 1518 1516 1515 1513 1511 1508 1505 1503 1500 1498 1496 1495 1493 1492 1490 1489 1488 1488 1487 1486 1486 1485 1482 1476 1473 1472 1472
1518 1520 1520 1521 1522 1523 1524 1525 1526 1526 1526 1526 1524 1522 1520 1518 1517 1515 1513 1512 1509 1506 1503 1501 1499 1496 1495 1493 1491 1490 1488 1487 1486 1485 1485 1484 1484 1482 1480 1476 1472 1470 1467
1518 1519 1520 1521 1522 1523 1524 1525 1525 1525 1525 1524 1523 1521 1519 1517 1516 1514 1512 1510 1507 1505 1502 1500 1497 1495 1493 1491 1489 1487 1486 1484 1483 1482 1481 1481 1480 1479 1478 1475 1470 1468 1465
1516 1516 1518 1519 1520 1521 1522 1523 1523 1523 1523 1522 1521 1519 1518 1516 1515 1513 1511 1509 1506 1504 1502 1499 1497 1494 1492 1490 1488 1485 1484 1482 1481 1480 1478 1477 1476 1475 1474 1473 1470 1465 1464
1513 1514 1516 1517 1518 1519 1520 1521 1522 1522 1521 1520 1519 1518 1516 1515 1513 1511 1509 1507 1505 1503 1501 1498 1496 1494 1491 1489 1486 1484 1482 1480 1478 1477 1475 1473 1472 1472 1471 1470 1469 1468 1463
1512 1512 1513 1513 1514 1515 1516 1517 1518 1518 1518 1517 1516 1516 1514 1512 1510 1508 1506 1504 1502 1500 1498 1496 1494 1492 1490 1488 1485 1483 1480 1478 1476 1474 1472 1471 1469 1469 1468 1467 1466 1465 1463
1508 1509 1510 1510 1512 1512 1513 1514 1515 1515 1514 1514 1513 1513 1511 1510 1508 1505 1504 1502 1501 1498 1496 1494 1492 1490 1488 1486 1483 1481 1478 1476 1474 1472 1470 1468 1467 1465 1464 1463 1462 1461 1460
1507 1508 1509 1510 1510 1510 1511 1511 1512 1512 1512 1511 1511 1509 1508 1506 1504 1502 1500 1499 1497 1495 1493 1492 1490 1488 1486 1484 1482 1479 1477 1474 1471 1469 1468 1466 1464 1462 1461 1460 1458 1457 1456
1506 1506 1507 1508 1508 1509 1509 1510 1510 1509 1509 1509 1508 1507 1505 1503 1501 1499 1497 1495 1494 1492 1491 1489 1487 1485 1484 1482 1480 1477 1474 1472 1469 1467 1465 1463 1461 1459 1457 1456 1455 1453 1452
1504 1504 1503 1503 1504 1504 1506 1507 1508 1507 1507 1506 1505 1503 1502 1500 1498 1496 1494 1492 1490 1488 1487 1485 1484 1482 1480 1478 1476 1474 1471 1469 1467 1464 1462 1460 1458 1456 1453 1451 1450 1449 1447
1504 1503 1502 1502 1503 1503 1504 1505 1506 1505 1505 1503 1501 1499 1497 1495 1493 1491 1489 1487 1485 1484 1482 1480 1479 1477 1475 1473 1471 1469 1467 1464 1463 1461 1459 1456 1454 1452 1451 1449 1447 1445 1443
1506 1503 1501 1501 1502 1503 1504 1504 1504 1504 1503 1501 1498 1496 1493 1491 1488 1487 1485 1483 1481 1479 1477 1475 1473 1471 1470 1468 1466 1464 1462 1459 1457 1455 1454 1453 1450 1448 1446 1444 1443 1441 1439
1506 1504 1503 1502 1501 1501 1501 1501 1501 1500 1497 1496 1494 1491 1488 1486 1484 1481 1480 1478 1476 1474 1472 1470 1468 1466 1465 1463 1461 1459 1456 1454 1452 1450 1448 1447 1446 1444 1441 1439 1437 1436 1434
1506 1505 1503 1501 1500 1499 1498 1497 1496 1495 1494 1491 1489 1487 1484 1481 1478 1476 1474 1472 1470 1468 1466 1464 1463 1460 1459 1457 1455 1453 1450 1448 1446 1443 1441 1439 1439 1438 1436 1433 1431 1429 1428
1505 1504 1502 1500 1498 1496 1494 1492 1491 1491 1489 1486 1483 1481 1479 1476 1473 1471 1468 1466 1463 1462 1461 1459 1457 1454 1452 1451 1448 1446 1443 1440 1439 1437 1435 1433 1431 1431 1429 1426 1424 1422 1421
1502 1501 1499 1497 1495 1493 1490 1488 1487 1484 1483 1481 1479 1477 1474 1471 1468 1465 1463 1460 1458 1455 1454 1451 1449 1447 1444 1444 1441 1439 1436 1433 1431 1430 1428 1426 1423 1422 1421 1419 1417 1414 1413
1500 1498 1496 1494 1491 1489 1486 1483 1481 1479 1477 1474 1471 1469 1468 1466 1463 1460 1457 1454 1451 1449 1446 1444 1441 1439 1438 1435 1434 1432 1429 1426 1423 1421 1419 1417 1416 1413 1412 1410 1408 1406 1405
1497 1495 1493 1490 1487 1485 1482 1479 1477 1474 1471 1469 1466 1463 1461 1458 1456 1453 1450 1447 1444 1440 1437 1434 1431 1429 1428 1427 1425 1423 1422 1419 1415 1411 1409 1408 1407 1404 1402 1402 1399 1399 1397
1493 1491 1489 1485 1483 1481 1479 1475 1471 1469 1465 1462 1458 1456 1453 1449 1447 1445 1441 1439 1436 1432 1429 1426 1423 1420 1418 1417 1416 1414 1412 1409 1406 1403 1400 1398 1396 1395 1393 1391 1390 1390 1388
1489 1487 1484 1481 1477 1474 1471 1469 1465 1462 1458 1454 1450 1447 1444 1440 1437 1436 1434 1430 1427 1424 1421 1418 1415 1412 1410 1407 1406 1404 1401 1399 1397 1395 1392 1390 1389 1387 1383 1381 1380 1379 1379
1484 1481 1477 1473 1469 1466 1463 1460 1456 1453 1448 1445 1441 1438 1435 1431 1429 1427 1424 1421 1418 1416 1412 1409 1407 1403 1398 1396 1395 1392 1390 1388 1386 1386 1383 1380 1378 1376 1373 1371 1370 1369 1369
1478 1474 1471 1466 1461 1458 1454 1450 1447 1443 1440 1436 1433 1429 1425 1421 1419 1416 1412 1410 1408 1406 1403 1401 1398 1393 1389 1386 1384 1382 1380 1378 1377 1376 1373 1370 1368 1365 1364 1362 1360 1359 1359
Wind_Speed
13 13 14 13 11 7 4 2 3 6 5 5 6 6 6 7 8 11 11 13 14 15 16 15 15 15 16 16 15 16 17 15 15 20 20 8 1 6 9 7 14 19 22
10 12 13 11 8 7 5 2 3 2 4 5 6 6 7 8 9 10 15 15 17 16 16 16 15 15 15 15 14 16 17 15 13 15 17 12 4 5 2 4 8 16 22
13 12 10 9 10 7 4 1 2 2 3 4 5 8 9 10 11 13 13 14 15 16 16 16 15 15 15 15 15 15 16 17 12 8 7 7 5 22 2 8 11 11 17
13 13 12 9 9 6 4 4 2 1 3 5 8 10 11 12 12 13 14 13 14 16 16 15 15 15 15 15 15 15 16 15 15 11 4 8 11 8 14 12 21 13 13
14 14 12 12 8 6 6 4 1 1 5 7 8 9 10 11 12 12 13 13 13 14 15 16 16 15 14 14 15 15 15 14 15 13 13 12 11 10 15 19 22 23 18
11 12 12 9 8 7 6 4 1 2 5 7 8 10 11 12 13 13 14 14 14 14 15 16 15 15 15 15 15 15 15 15 14 14 13 12 13 16 15 22 24 24 22
11 11 10 9 8 8 6 4 2 3 6 7 8 10 11 12 13 14 15 16 16 16 16 17 16 16 15 15 14 14 14 14 14 15 15 14 14 14 16 19 23 21 25
11 12 11 10 10 10 7 6 4 5 6 6 8 9 11 12 13 14 15 15 16 16 16 16 16 15 15 15 14 14 13 13 13 16 16 17 16 16 15 17 21 26 18
14 13 12 14 13 12 10 7 6 6 5 6 7 8 9 11 12 13 14 14 15 15 15 15 15 15 15 15 14 14 13 13 13 13 14 15 15 14 14 16 16 16 15
13 14 16 16 14 14 13 11 8 6 4 4 5 7 9 11 13 14 15 15 15 16 15 14 15 15 15 15 15 14 14 14 13 13 13 14 15 15 15 16 15 14 15
17 17 17 15 16 16 15 14 10 8 6 5 6 8 9 11 13 14 16 16 16 16 16 16 15 14 14 14 14 14 14 14 14 13 14 14 14 15 15 15 15 16 16
16 15 16 15 17 18 18 15 12 10 9 7 7 8 10 12 14 15 17 17 17 16 16 16 15 14 14 15 16 16 16 16 15 14 14 14 13 14 15 16 16 16 16
3 8 14 17 20 19 16 17 14 13 11 9 8 9 11 13 14 15 17 17 17 17 16 15 15 15 16 17 18 18 18 17 17 16 15 14 13 13 13 14 16 17 18
13 12 15 18 19 19 18 18 16 15 12 9 9 10 13 15 16 17 18 18 17 16 16 16 17 18 19 19 19 18 18 18 17 16 15 15 14 14 14 14 14 16 18
17 15 14 14 15 17 18 16 15 17 13 12 13 14 15 15 17 18 19 20 19 18 18 19 19 20 21 20 19 18 18 17 17 16 15 15 16 15 14 15 15 15 17
18 20 13 10 9 11 13 14 15 17 17 16 17 17 17 17 18 20 21 21 20 21 21 22 22 22 21 20 19 19 20 19 19 19 18 18 17 17 17 17 17 18 18
17 17 17 12 9 9 10 13 16 17 21 21 21 20 19 19 20 22 22 23 23 23 23 22 22 21 20 20 20 20 22 23 23 22 22 22 21 21 21 21 21 21 22
13 13 12 9 7 9 14 18 21 22 23 24 23 22 21 22 23 22 23 24 24 24 24 24 23 24 24 24 25 25 25 25 24 24 24 24 24 23 24 25 25 24 24
12 14 16 16 16 17 17 18 21 23 24 24 23 23 22 23 25 25 24 23 23 24 25 27 28 29 29 28 27 27 27 27 26 26 25 25 26 26 28 29 28 27 27
14 16 19 17 17 16 18 21 22 21 21 22 23 23 25 25 25 24 25 25 26 27 29 30 29 29 30 28 27 26 27 29 28 28 29 28 29 30 29 31 31 29 29
18 19 20 22 21 20 22 25 25 26 23 22 24 25 25 24 25 26 26 26 27 27 29 30 30 29 28 28 26 26 27 30 32 32 32 31 30 31 30 30 32 33 31
18 18 20 20 21 23 22 23 25 25 25 25 24 25 25 27 29 30 30 31 31 32 33 34 33 31 30 29 29 29 30 30 33 35 34 32 31 31 30 32 33 34 33
20 21 23 26 27 26 24 25 27 27 28 27 28 31 34 35 33 31 31 32 32 34 36 36 36 35 32 31 31 32 33 34 34 34 33 31 30 28 30 32 33 34 32
24 26 27 27 29 30 30 29 30 30 32 35 37 38 37 36 34 33 33 34 34 33 34 36 36 35 34 35 37 36 34 32 30 28 27 25 26 26 28 30 32 33 33
24 27 30 34 35 34 32 31 32 32 34 37 39 38 37 35 35 34 34 35 35 36 37 37 37 37 38 37 34 33 32 32 32 29 30 32 32 31 33 35 35 34 32
26 29 32 33 35 35 37 37 36 34 34 36 37 35 35 34 36 38 37 36 36 36 36 37 36 38 38 35 33 31 29 28 27 27 29 32 34 34 35 32 32 31 31
Wind_Direction
169 174 181 193 195 194 201 240 323 340 2 14 19 10 357 345 341 335 336 338 337 333 332 329 329 327 326 327 327 324 329 339 337 333 340 1 247 262 352 340 341 351 355
167 179 188 184 163 192 203 235 323 13 30 14 4 360 354 356 348 340 339 331 331 331 334 332 329 327 325 325 324 323 325 334 348 346 346 353 64 234 273 357 357 351 344
172 177 177 182 194 200 200 246 125 66 15 6 359 356 348 343 339 326 331 337 337 336 336 337 334 332 329 327 325 324 324 328 338 344 347 338 325 328 219 318 352 337 348
171 170 171 186 205 186 189 161 141 39 12 356 352 352 350 347 343 340 342 341 337 335 338 339 336 333 329 327 325 322 318 320 325 330 275 267 291 310 320 313 325 320 338
167 171 181 196 196 181 173 173 168 41 2 349 350 354 355 352 347 344 344 345 342 342 339 341 339 338 334 330 326 323 320 318 313 313 311 306 298 292 299 311 309 319 335
173 184 204 203 195 183 184 195 173 357 342 341 347 352 354 352 352 353 352 353 353 351 347 345 343 341 337 334 329 323 318 316 312 309 308 307 306 300 304 303 309 317 325
190 205 207 197 195 194 201 193 256 322 331 339 347 354 357 356 356 357 356 356 357 356 354 352 350 348 345 339 333 327 324 321 317 314 307 301 294 293 294 300 308 313 321
211 220 209 204 204 210 209 220 265 307 322 336 351 356 358 359 358 355 354 355 354 354 354 353 353 351 348 345 341 336 329 322 313 310 311 308 305 300 297 298 304 314 321
211 223 207 215 217 219 219 237 270 294 317 339 348 352 352 352 352 351 350 348 347 346 348 351 354 354 354 352 348 345 340 332 323 313 307 304 305 302 297 293 295 299 307
223 225 222 223 220 227 229 238 253 268 286 308 325 334 341 343 343 343 341 339 337 335 337 338 339 340 343 345 346 347 345 340 333 324 316 311 309 304 294 291 295 293 290
232 230 230 230 227 234 237 240 248 252 257 274 303 320 331 335 335 335 334 331 329 327 327 327 327 329 331 333 335 337 339 338 338 336 327 322 312 306 306 301 295 289 290
241 234 234 232 231 239 245 242 245 246 250 267 291 309 319 326 329 329 326 324 323 322 321 321 323 325 326 326 326 327 329 328 329 330 329 329 322 316 309 307 305 299 296
263 243 244 237 236 245 249 252 246 244 250 265 290 310 318 320 320 320 320 316 314 313 312 313 315 317 318 318 317 318 319 319 319 320 322 324 324 324 318 311 306 303 299
341 323 259 247 244 241 243 250 250 250 254 274 292 305 313 314 314 315 315 311 307 304 302 303 306 309 310 310 308 307 309 312 314 315 317 321 325 325 323 319 316 311 307
355 339 325 280 258 250 239 248 248 253 265 279 290 298 306 308 307 308 308 304 301 300 300 300 302 304 305 305 303 302 304 306 308 311 314 316 317 319 319 318 318 313 309
12 7 350 338 277 275 262 258 254 270 275 281 292 297 301 303 304 305 304 301 300 299 300 301 302 304 304 304 305 305 305 306 308 309 309 309 309 311 312 313 312 312 311
7 6 8 353 325 294 278 260 269 274 276 286 291 291 293 295 297 299 302 303 303 303 301 300 300 301 301 301 302 302 301 302 303 304 305 304 304 306 305 306 308 307 308
349 342 338 333 319 290 286 280 277 274 280 288 292 289 292 295 296 299 300 301 302 301 302 304 304 303 304 304 302 301 298 295 294 295 296 297 299 300 300 300 300 300 301
335 335 331 322 304 291 280 274 278 285 291 291 294 296 295 291 297 301 301 301 300 299 300 301 301 301 301 302 302 300 298 297 295 293 292 293 293 294 296 295 294 294 296
338 334 331 326 322 321 303 295 297 300 298 296 292 283 285 291 296 297 297 297 297 298 299 299 300 301 302 303 303 302 301 298 298 295 293 291 291 291 290 289 291 291 294
328 328 323 321 319 311 307 305 304 304 306 295 290 291 295 300 302 302 302 302 302 300 299 299 299 298 299 300 300 300 297 295 297 295 292 289 287 286 286 285 286 288 290
328 326 324 321 315 314 313 305 302 306 304 297 292 295 306 312 310 307 303 300 299 298 298 298 298 299 300 300 295 294 292 290 289 290 289 288 285 281 279 277 279 281 286
322 319 317 314 314 315 310 301 299 299 301 298 296 297 304 307 306 300 297 295 293 290 292 294 294 296 297 294 291 289 289 290 289 288 288 290 289 287 280 276 278 280 280
318 316 314 309 307 307 305 303 301 298 294 290 289 291 293 292 293 293 291 289 290 288 285 284 284 286 286 286 288 291 291 290 282 277 275 275 280 282 282 280 278 280 282
321 322 315 311 310 310 306 304 298 297 294 292 292 294 293 290 287 286 285 283 284 285 286 286 286 286 290 294 297 294 290 286 286 289 285 282 279 277 277 278 279 281 284
310 311 314 307 303 304 305 306 305 303 298 295 296 294 291 287 285 287 287 287 284 286 287 287 285 288 290 295 296 294 293 291 285 281 277 274 276 277 277 275 279 283 283